RH
70 69 65 64 62 59 54 51 54 63 64 61 62 65 77 83 86 86 83 86 85 85 86 86 85 84 84 86 85 85 85 88 88 88 85 85 85 84 83 82 82 81 80
67 67 67 65 61 52 52 47 47 54 62 59 56 59 70 83 86 80 72 78 79 84 84 82 82 82 82 82 84 83 84 86 88 87 85 84 84 84 83 82 81 80 79
69 70 68 63 58 51 44 43 45 55 61 58 54 60 70 76 65 53 51 60 67 78 82 80 79 79 78 78 79 80 82 85 86 85 85 84 84 83 82 81 80 79 77
71 68 64 62 55 50 46 44 43 56 58 57 55 62 66 59 48 47 34 38 47 50 69 81 79 75 73 74 75 78 80 84 86 84 85 84 84 83 81 80 79 77 78
70 68 66 62 60 56 53 50 49 46 52 58 58 61 58 59 62 52 36 32 32 29 18 12 15 12 24 60 70 74 79 80 83 84 83 83 83 83 81 80 78 77 76
70 70 70 71 69 62 57 56 54 55 51 54 60 63 66 70 67 61 41 35 32 28 21 16 14 11 10 10 13 58 74 77 81 82 82 82 83 82 81 80 78 77 75
74 75 75 75 68 64 59 61 62 59 57 55 59 69 70 66 60 52 44 41 35 31 23 20 19 16 17 15 11 13 59 75 78 81 82 82 83 82 80 78 77 76 75
72 74 76 74 71 67 66 66 62 61 58 55 58 66 79 67 56 50 46 44 38 33 29 28 27 24 24 21 16 9 8 66 75 78 83 83 84 83 81 79 76 76 80
70 73 74 72 70 68 67 65 67 62 58 57 58 58 87 84 75 67 53 47 43 38 35 35 34 32 30 27 21 11 7 32 76 81 84 83 84 82 81 79 77 78 90
72 72 74 73 75 72 69 68 69 65 58 56 60 61 68 62 85 82 78 55 48 44 40 39 38 35 34 32 25 14 8 14 70 78 84 84 85 84 82 79 76 85 81
71 71 72 72 74 74 72 73 73 70 61 56 55 61 64 68 68 75 86 83 53 47 46 43 42 39 38 36 29 17 9 8 54 80 86 85 87 84 82 80 78 85 81
71 71 72 72 72 74 75 73 75 75 73 64 56 58 58 59 62 69 83 84 58 48 44 46 46 43 42 38 31 18 12 10 29 79 87 87 89 87 85 82 80 78 87
72 72 71 72 73 72 72 76 78 76 74 74 72 70 66 63 59 54 58 68 66 51 44 46 48 47 45 40 32 20 16 12 11 66 88 91 92 91 89 86 84 84 87
67 66 68 69 71 72 70 76 78 78 76 73 70 70 71 70 65 58 46 47 56 49 49 44 50 50 47 41 32 22 16 11 11 33 88 95 95 94 93 90 90 88 88
72 70 69 69 69 71 70 73 77 76 76 75 72 68 64 65 64 56 51 38 37 52 58 42 44 49 48 41 32 22 16 14 13 31 84 80 97 96 95 93 96 91 89
78 80 78 72 69 69 70 72 76 77 77 75 75 69 61 56 58 54 46 40 32 30 45 33 45 44 46 41 31 23 18 14 15 28 62 71 96 97 97 95 93 93 92
72 80 84 81 70 67 68 75 76 78 79 76 77 74 67 55 48 43 38 33 29 26 29 33 38 46 46 39 31 24 19 16 19 35 44 63 88 80 90 94 98 96 95
76 74 81 86 81 74 69 71 75 78 81 80 76 78 73 61 47 36 29 22 22 24 21 28 38 46 46 39 30 26 20 22 25 41 45 54 58 58 82 97 98 96 98
84 86 86 88 86 80 74 70 70 74 79 79 77 78 76 71 56 42 32 24 21 21 22 21 36 46 46 41 36 27 23 27 30 46 48 52 56 56 62 100 100 99 95
95 91 85 85 87 83 79 74 72 73 76 79 79 78 77 77 72 60 42 31 25 23 23 24 31 45 50 45 38 29 41 47 33 41 49 49 59 57 62 82 84 97 91
93 90 91 92 90 85 82 81 77 73 74 76 79 79 80 76 77 75 61 44 31 28 27 28 35 44 44 42 35 48 70 45 32 38 47 47 60 58 60 72 82 93 94
98 97 97 96 94 93 86 85 81 80 78 81 81 75 78 78 79 82 77 70 45 31 29 34 45 45 43 36 40 71 59 50 51 44 56 50 67 60 61 66 90 96 98
100 100 100 100 100 98 96 93 91 92 92 87 85 85 84 81 83 85 80 62 54 48 33 30 37 38 32 36 70 79 75 49 48 54 61 72 73 60 64 72 91 96 97
85 89 97 100 100 100 99 98 98 99 100 99 97 94 91 89 87 88 85 74 70 49 50 58 53 58 58 73 84 85 49 61 61 62 70 89 79 67 69 78 91 88 98
86 82 82 83 88 98 100 100 100 100 100 100 99 100 99 97 92 92 88 82 70 72 73 66 69 82 81 88 87 52 80 87 78 75 78 87 81 75 75 75 74 72 77
99 93 87 86 90 98 96 99 100 100 100 100 99 100 100 100 99 97 93 91 91 88 73 90 99 100 96 94 84 71 77 73 76 94 91 86 87 82 83 74 71 70 81
Wind_Speed
17 16 14 12 11 11 11 13 14 14 14 13 13 13 14 14 15 15 15 15 15 14 14 15 16 16 16 17 17 17 16 17 17 17 18 18 19 20 20 21 22 23 23
14 13 11 9 9 9 11 10 12 14 14 12 13 12 13 13 13 12 12 13 14 14 14 14 15 15 15 16 16 16 15 16 16 17 17 17 18 19 20 21 22 22 24
10 9 9 9 9 10 10 11 12 13 13 12 12 12 12 12 11 11 11 10 12 14 13 13 13 14 15 15 15 14 14 14 15 16 16 17 18 19 20 20 22 23 24
8 8 8 9 9 10 10 11 12 14 13 11 12 12 11 11 10 9 8 8 8 9 12 11 12 13 14 14 14 13 13 13 14 14 15 16 17 18 19 20 21 22 23
9 9 9 9 9 9 10 10 12 12 13 13 12 12 11 9 7 6 6 6 6 6 6 7 7 8 10 12 13 12 11 12 13 14 14 15 16 18 19 20 21 22 24
11 11 10 8 8 9 10 11 11 11 12 13 13 11 9 7 6 5 5 5 5 4 4 4 5 6 8 10 11 11 11 12 13 13 14 15 16 17 18 19 21 22 24
12 10 9 8 9 10 10 11 12 12 13 14 15 8 6 6 6 7 7 6 5 4 3 2 2 3 6 8 11 11 11 11 12 12 13 14 15 17 18 19 20 22 24
14 12 10 9 11 11 11 12 13 15 11 18 6 6 1 4 9 9 9 8 7 6 4 3 1 2 5 8 11 12 12 11 12 13 13 14 15 16 18 19 20 22 22
16 14 13 11 11 11 12 13 14 15 14 20 12 5 2 4 3 9 12 11 10 9 7 5 4 3 5 7 10 12 13 11 12 12 13 14 15 16 17 18 20 20 22
18 17 16 15 12 11 13 14 15 16 16 23 15 13 3 2 3 1 7 12 12 12 11 10 8 6 6 7 8 11 11 10 10 12 13 14 14 15 16 17 19 19 18
20 19 18 18 16 13 13 15 16 17 18 20 22 12 17 8 6 3 3 6 14 16 15 14 12 10 8 7 8 10 11 11 10 11 11 12 14 14 16 16 17 17 19
23 22 21 21 19 16 15 16 17 18 19 20 21 23 16 7 12 8 4 6 9 12 18 18 16 13 11 9 8 10 10 10 10 10 10 10 12 12 14 15 16 17 18
27 27 25 24 23 19 17 18 18 19 20 22 23 24 23 24 17 14 10 6 7 11 12 19 19 17 14 10 9 8 8 9 11 8 8 9 10 11 13 14 15 16 18
30 30 29 28 27 24 20 20 20 20 21 22 22 23 23 23 23 20 15 11 2 9 13 11 19 19 15 12 9 8 9 10 11 8 7 8 9 10 12 12 13 15 16
33 31 31 31 30 28 25 24 23 23 23 22 23 22 23 23 22 23 22 20 16 4 4 12 12 19 17 13 10 8 9 9 10 7 7 8 8 10 11 11 12 13 13
32 33 33 33 32 31 30 29 28 26 25 24 23 23 23 23 22 22 22 22 21 17 4 11 17 14 16 13 9 8 9 9 10 7 7 7 7 9 9 10 11 12 15
32 32 34 33 35 35 34 34 33 31 30 28 26 26 25 24 23 23 22 22 22 21 14 11 14 16 15 14 11 10 9 8 9 7 7 7 7 10 9 9 10 9 12
37 38 35 34 35 37 39 39 38 36 34 33 31 30 29 26 26 24 24 24 23 22 19 13 16 17 18 15 13 10 7 8 8 6 6 7 8 10 8 7 8 8 12
39 39 39 38 38 38 39 40 41 41 40 38 37 35 33 31 30 29 29 27 25 22 21 15 14 17 18 17 13 10 8 8 8 6 6 7 8 9 8 5 7 9 10
37 38 38 39 40 40 39 40 41 42 42 42 41 40 38 37 38 35 32 31 27 25 22 19 16 15 17 14 13 11 8 9 9 8 6 7 7 8 7 5 4 9 8
36 37 37 38 38 41 42 41 41 42 42 44 45 45 44 43 42 38 35 35 31 28 26 23 16 15 16 14 15 9 7 8 10 8 8 7 6 7 7 6 4 7 9
34 35 36 38 39 39 40 42 42 43 44 45 47 48 48 46 46 42 39 38 37 36 34 29 22 17 20 15 13 11 9 5 3 6 7 10 6 6 10 7 2 7 8
11 23 31 34 36 38 38 39 40 42 42 45 47 46 47 47 46 41 38 37 33 32 30 32 26 22 18 17 15 12 12 10 7 6 9 5 5 8 10 4 5 8 8
15 17 13 15 26 33 34 36 37 39 42 42 45 45 46 45 44 40 36 36 34 32 35 33 24 21 22 17 16 13 14 11 10 9 5 4 3 10 8 1 4 9 9
18 19 20 23 23 21 19 28 33 36 40 40 43 43 43 43 43 38 36 36 35 34 30 26 23 21 20 17 15 16 14 10 4 4 5 4 2 11 6 4 4 11 9
19 19 21 21 24 27 28 26 22 29 33 35 39 38 39 40 38 35 37 37 33 36 36 27 23 21 20 18 16 18 14 13 7 4 5 3 1 6 4 1 2 11 4
Wind_Direction
144 143 140 135 135 135 136 136 142 143 137 130 130 135 130 129 131 129 120 114 105 96 89 82 76 70 64 60 57 53 48 44 39 36 34 30 26 23 19 16 13 9 6
146 148 148 142 141 138 141 137 140 145 142 139 132 133 135 136 135 131 128 124 114 100 90 83 78 71 64 59 54 50 44 40 35 33 30 27 24 20 17 13 10 7 4
158 163 159 149 148 148 145 145 140 147 148 140 130 135 136 136 134 131 127 126 123 113 97 87 79 71 64 57 51 47 42 37 31 30 27 24 21 17 13 11 8 5 1
181 171 162 157 152 150 149 146 145 149 150 149 138 138 140 140 135 130 126 129 134 125 112 100 83 71 62 55 48 44 37 33 27 27 24 21 17 14 11 9 6 2 360
188 185 172 165 165 166 167 169 162 164 160 153 145 141 141 145 142 139 140 139 136 126 108 94 83 66 58 52 46 40 33 28 24 23 21 16 12 10 9 6 2 0 358
189 186 188 196 195 188 179 174 174 168 162 160 149 147 153 166 177 183 176 166 159 144 116 92 70 57 43 34 32 35 28 23 21 19 16 12 10 8 5 2 2 360 357
198 201 203 201 196 193 187 184 174 170 158 163 145 138 158 190 200 200 200 198 191 183 163 128 66 35 26 24 23 20 23 19 17 14 11 9 6 5 4 2 1 360 358
206 211 210 210 202 200 198 197 194 174 173 171 156 135 179 236 224 219 215 212 209 206 211 215 253 351 7 10 9 7 9 14 12 9 8 5 3 3 0 2 1 1 0
214 218 216 212 206 210 214 209 206 204 193 190 182 167 103 231 190 220 224 222 222 222 226 231 245 294 334 347 355 359 2 8 9 5 2 0 0 360 1 1 2 3 359
217 222 220 218 218 224 221 222 218 216 212 200 210 224 216 167 179 289 227 225 228 230 233 235 241 260 290 314 336 347 354 358 3 1 1 359 358 359 1 2 2 2 0
223 225 225 223 224 232 236 228 223 222 223 220 215 215 228 229 223 176 227 218 226 229 232 236 241 250 268 290 316 334 340 344 357 360 359 357 358 2 0 1 1 0 3
228 227 229 227 233 236 240 237 237 236 236 236 235 235 235 216 217 205 198 223 225 230 230 232 235 242 253 272 298 319 332 341 351 0 1 356 357 1 360 0 359 356 359
228 229 230 229 230 237 244 242 242 242 241 242 243 246 247 248 249 234 220 201 226 222 228 232 232 235 244 259 281 306 322 331 338 350 357 349 357 359 0 0 358 358 356
238 237 234 233 233 235 243 243 244 245 247 249 250 251 252 251 247 244 237 204 210 231 229 234 227 230 236 246 263 289 312 322 326 331 349 348 356 355 360 0 1 358 355
245 244 240 238 236 236 242 243 245 248 249 251 253 254 255 255 251 248 244 243 228 205 244 227 215 221 226 235 252 279 297 308 318 318 335 338 346 352 357 1 4 358 352
251 252 247 241 242 240 242 243 245 248 248 252 253 252 254 254 250 248 245 242 239 238 230 222 216 219 218 228 243 267 288 304 312 299 306 326 337 350 356 360 0 359 355
251 252 252 249 245 243 243 242 244 246 247 250 251 252 254 253 250 248 244 241 237 233 230 233 224 219 217 224 239 258 278 297 305 287 305 316 328 338 349 355 355 359 355
250 252 256 254 251 249 247 244 243 244 245 246 250 250 253 250 248 244 242 240 238 233 231 215 216 213 216 222 233 243 270 288 299 281 298 307 314 330 343 347 355 357 353
253 251 249 250 250 251 248 246 246 246 247 248 250 250 253 250 248 244 241 238 236 232 228 225 210 215 218 219 224 235 253 276 303 267 294 296 301 322 328 338 358 0 353
257 254 252 252 251 251 251 249 248 247 249 250 251 251 252 252 249 247 242 240 234 230 226 222 214 208 213 220 221 228 246 272 288 270 271 311 289 316 320 296 333 357 356
259 259 260 259 257 253 252 250 248 249 250 251 252 252 252 255 256 253 247 244 234 228 222 216 210 211 208 205 211 223 267 276 287 265 259 305 270 310 326 291 302 353 357
260 259 257 258 258 255 257 256 255 253 250 249 249 252 252 253 255 253 250 249 245 231 225 215 207 207 214 216 214 232 241 261 260 243 301 313 245 328 330 315 217 1 356
265 252 253 255 254 260 263 264 262 257 253 254 255 253 254 254 254 250 246 243 240 240 238 236 221 222 215 217 236 233 238 227 245 253 303 290 228 328 333 308 178 8 5
298 292 268 276 260 261 265 266 265 262 251 252 256 255 255 254 254 249 241 235 232 227 228 232 232 233 224 216 230 234 231 231 256 276 263 254 281 333 337 140 174 358 358
302 294 287 278 278 272 273 265 263 260 252 247 253 256 258 256 256 249 231 224 219 216 216 216 209 210 227 236 211 211 211 205 238 246 241 254 332 342 340 167 159 356 348
307 303 296 291 286 281 274 269 272 265 250 247 249 252 256 257 254 249 231 214 197 198 204 199 201 207 219 202 210 215 218 209 188 232 203 259 291 355 303 218 325 338 351